When you browse on this site, cookies collect data to enhance your experience and personalize the content and advertising you see.
Visit our Privacy Policy to learn more. By continuing to use the site, you agree to this use of cookies and data.
  • In Österreich
  • Länderverzeichnis
  • Für 7 Tage
  • Wassertemperatur
  • Wetterkarte
  • News
  • Widgets
  • user-avatar
    Anmelden

    Stündliche Wetter Morales

    Heute, 20 November, Mittwoch

    Zeit Temperatur Niederschläge Wind Luftdruck Luftfeuchtigkeit
    00:00 +16°C° 1 mm 0 m/S 624 mmHg 98%
    01:00 +16°C° 1 mm 0 m/S 623 mmHg 99%
    02:00 +16°C° 0.6 mm 0 m/S 623 mmHg 98%
    03:00 +15°C° 0.6 mm 0 m/S 623 mmHg 98%
    04:00 +15°C° 0.6 mm 0 m/S 623 mmHg 98%
    05:00 +15°C° 0.3 mm 0 m/S 623 mmHg 98%
    06:00 +16°C° 0.3 mm 0 m/S 623 mmHg 98%
    07:00 +16°C° 0.3 mm 0 m/S 624 mmHg 98%
    08:00 +16°C° 0.9 mm 0 m/S 624 mmHg 97%
    09:00 +17°C° 0.9 mm 0 m/S 625 mmHg 96%
    10:00 +17°C° 0.9 mm 0 m/S 625 mmHg 94%
    11:00 +18°C° 0.4 mm 0 m/S 625 mmHg 89%
    12:00 +19°C° 0.4 mm 0 m/S 625 mmHg 84%
    13:00 +20°C° 0.4 mm 0 m/S 624 mmHg 79%
    14:00 +22°C° 0.3 mm 1 m/S 624 mmHg 79%
    15:00 +22°C° 0.3 mm 1 m/S 623 mmHg 78%
    16:00 +22°C° 0.3 mm 1 m/S 623 mmHg 78%
    17:00 +21°C° 0.6 mm 1 m/S 623 mmHg 84%
    18:00 +19°C° 0.6 mm 1 m/S 623 mmHg 90%
    19:00 +16°C° 0.6 mm 0 m/S 623 mmHg 96%
    20:00 +16°C° 0.8 mm 0 m/S 623 mmHg 97%
    21:00 +16°C° 0.8 mm 0 m/S 623 mmHg 97%
    22:00 +16°C° 0.8 mm 0 m/S 624 mmHg 97%
    23:00 +15°C° 0.2 mm 0 m/S 624 mmHg 97%

    Morgen, 21 November, Donnerstag

    Zeit Temperatur Niederschläge Wind Luftdruck Luftfeuchtigkeit
    00:00 +15°C° 0.2 mm 0 m/S 623 mmHg 97%
    01:00 +15°C° 0.2 mm 0 m/S 623 mmHg 97%
    02:00 +15°C° 0.1 mm 0 m/S 623 mmHg 97%
    03:00 +15°C° 0.1 mm 0 m/S 623 mmHg 97%
    04:00 +15°C° 0.1 mm 0 m/S 622 mmHg 96%
    05:00 +15°C° 0 mm 0 m/S 623 mmHg 96%
    06:00 +15°C° 0 mm 0 m/S 623 mmHg 95%
    07:00 +16°C° 0 mm 0 m/S 624 mmHg 94%
    08:00 +18°C° 0.1 mm 0 m/S 624 mmHg 88%
    09:00 +19°C° 0.1 mm 0 m/S 625 mmHg 81%
    10:00 +23°C° 0.1 mm 1 m/S 626 mmHg 74%
    11:00 +23°C° 1.2 mm 1 m/S 625 mmHg 77%
    12:00 +23°C° 1.2 mm 1 m/S 624 mmHg 81%
    13:00 +23°C° 1.2 mm 1 m/S 624 mmHg 85%
    14:00 +22°C° 1.9 mm 1 m/S 623 mmHg 87%
    15:00 +21°C° 1.9 mm 1 m/S 622 mmHg 90%
    16:00 +20°C° 1.9 mm 1 m/S 622 mmHg 93%
    17:00 +20°C° 1.8 mm 1 m/S 622 mmHg 95%
    18:00 +19°C° 1.8 mm 1 m/S 622 mmHg 96%
    19:00 +18°C° 1.8 mm 1 m/S 622 mmHg 97%
    20:00 +16°C° 1.1 mm 0 m/S 623 mmHg 97%
    21:00 +16°C° 1.1 mm 0 m/S 623 mmHg 97%
    22:00 +16°C° 1.1 mm 0 m/S 623 mmHg 98%
    23:00 +15°C° 3.2 mm 0 m/S 623 mmHg 98%

    übermorgen, 22 November, Freitag

    Zeit Temperatur Niederschläge Wind Luftdruck Luftfeuchtigkeit
    00:00 +15°C° 3.2 mm 0 m/S 623 mmHg 98%
    01:00 +15°C° 3.2 mm 0 m/S 622 mmHg 98%
    02:00 +15°C° 1.5 mm 0 m/S 622 mmHg 98%
    03:00 +15°C° 1.5 mm 0 m/S 622 mmHg 98%
    04:00 +15°C° 1.5 mm 0 m/S 622 mmHg 98%
    05:00 +15°C° 0.4 mm 0 m/S 622 mmHg 97%
    06:00 +15°C° 0.4 mm 0 m/S 623 mmHg 97%
    07:00 +15°C° 0.4 mm 0 m/S 623 mmHg 96%
    08:00 +17°C° 0.3 mm 0 m/S 624 mmHg 90%
    09:00 +19°C° 0.3 mm 0 m/S 625 mmHg 84%
    10:00 +23°C° 0.3 mm 1 m/S 626 mmHg 77%
    11:00 +22°C° 1.2 mm 1 m/S 625 mmHg 81%
    12:00 +22°C° 1.2 mm 1 m/S 624 mmHg 85%
    13:00 +21°C° 1.2 mm 1 m/S 624 mmHg 90%
    14:00 +20°C° 1.7 mm 1 m/S 623 mmHg 92%
    15:00 +20°C° 1.7 mm 1 m/S 622 mmHg 94%
    16:00 +19°C° 1.7 mm 1 m/S 622 mmHg 96%
    17:00 +18°C° 1.4 mm 1 m/S 622 mmHg 97%
    18:00 +16°C° 1.4 mm 0 m/S 622 mmHg 97%
    19:00 +15°C° 1.4 mm 0 m/S 622 mmHg 98%
    20:00 +15°C° 0.1 mm 0 m/S 623 mmHg 98%
    21:00 +15°C° 0.1 mm 0 m/S 623 mmHg 98%
    22:00 +15°C° 0.1 mm 0 m/S 623 mmHg 97%
    23:00 +15°C° 0 mm 0 m/S 623 mmHg 97%

    23 November, Samstag

    Zeit Temperatur Niederschläge Wind Luftdruck Luftfeuchtigkeit
    00:00 +15°C° 0 mm 0 m/S 623 mmHg 97%
    01:00 +14°C° 0 mm 0 m/S 622 mmHg 97%
    02:00 +14°C° 0 mm 0 m/S 622 mmHg 98%
    03:00 +14°C° 0 mm 0 m/S 622 mmHg 98%
    04:00 +15°C° 0 mm 0 m/S 622 mmHg 98%
    05:00 +15°C° 0 mm 0 m/S 622 mmHg 97%
    06:00 +15°C° 0 mm 0 m/S 623 mmHg 97%
    07:00 +15°C° 0 mm 0 m/S 623 mmHg 96%
    08:00 +17°C° 0.1 mm 0 m/S 624 mmHg 89%
    09:00 +19°C° 0.1 mm 0 m/S 625 mmHg 83%
    10:00 +22°C° 0.1 mm 1 m/S 625 mmHg 76%
    11:00 +23°C° 0.5 mm 1 m/S 625 mmHg 75%
    12:00 +23°C° 0.5 mm 1 m/S 624 mmHg 75%
    13:00 +23°C° 0.5 mm 1 m/S 624 mmHg 75%
    14:00 +22°C° 0.8 mm 1 m/S 623 mmHg 80%
    15:00 +21°C° 0.8 mm 1 m/S 622 mmHg 85%
    16:00 +21°C° 0.8 mm 1 m/S 622 mmHg 90%
    17:00 +20°C° 0.5 mm 1 m/S 622 mmHg 92%
    18:00 +19°C° 0.5 mm 1 m/S 622 mmHg 95%
    19:00 +16°C° 0.5 mm 0 m/S 622 mmHg 97%
    20:00 +15°C° 0.2 mm 0 m/S 623 mmHg 97%
    21:00 +15°C° 0.2 mm 0 m/S 623 mmHg 97%
    22:00 +15°C° 0.2 mm 0 m/S 623 mmHg 97%
    23:00 +15°C° 0.2 mm 0 m/S 623 mmHg 97%

    24 November, Sonntag

    Zeit Temperatur Niederschläge Wind Luftdruck Luftfeuchtigkeit
    00:00 +15°C° 0.2 mm 0 m/S 623 mmHg 97%
    01:00 +15°C° 0.2 mm 0 m/S 622 mmHg 96%
    02:00 +15°C° 0.2 mm 0 m/S 622 mmHg 96%
    03:00 +15°C° 0.2 mm 0 m/S 622 mmHg 96%
    04:00 +15°C° 0.2 mm 0 m/S 621 mmHg 96%
    05:00 +15°C° 0 mm 0 m/S 622 mmHg 96%
    06:00 +15°C° 0 mm 0 m/S 623 mmHg 95%
    07:00 +15°C° 0 mm 0 m/S 623 mmHg 95%
    08:00 +17°C° 0.1 mm 0 m/S 624 mmHg 86%
    09:00 +20°C° 0.1 mm 0 m/S 625 mmHg 78%
    10:00 +24°C° 0.1 mm 1 m/S 626 mmHg 70%
    11:00 +23°C° 0.6 mm 1 m/S 625 mmHg 74%
    12:00 +23°C° 0.6 mm 1 m/S 624 mmHg 78%
    13:00 +23°C° 0.6 mm 1 m/S 623 mmHg 82%
    14:00 +22°C° 1.2 mm 1 m/S 622 mmHg 85%
    15:00 +22°C° 1.2 mm 1 m/S 622 mmHg 87%
    16:00 +21°C° 1.2 mm 1 m/S 621 mmHg 90%
    17:00 +20°C° 0.6 mm 1 m/S 621 mmHg 93%
    18:00 +19°C° 0.6 mm 1 m/S 622 mmHg 95%
    19:00 +16°C° 0.6 mm 0 m/S 622 mmHg 97%
    20:00 +16°C° 0.1 mm 0 m/S 622 mmHg 98%
    21:00 +16°C° 0.1 mm 0 m/S 622 mmHg 98%
    22:00 +16°C° 0.1 mm 0 m/S 623 mmHg 98%
    23:00 +16°C° 0.1 mm 0 m/S 622 mmHg 98%

    25 November, Montag

    Zeit Temperatur Niederschläge Wind Luftdruck Luftfeuchtigkeit
    00:00 +16°C° 0.1 mm 0 m/S 622 mmHg 98%
    01:00 +16°C° 0.1 mm 0 m/S 622 mmHg 98%
    02:00 +15°C° 0.1 mm 0 m/S 622 mmHg 98%
    03:00 +15°C° 0.1 mm 0 m/S 621 mmHg 98%
    04:00 +15°C° 0.1 mm 0 m/S 621 mmHg 98%
    05:00 +16°C° 0 mm 0 m/S 622 mmHg 98%
    06:00 +16°C° 0 mm 0 m/S 622 mmHg 97%
    07:00 +16°C° 0 mm 0 m/S 622 mmHg 96%
    08:00 +18°C° 0.1 mm 0 m/S 623 mmHg 89%
    09:00 +20°C° 0.1 mm 0 m/S 624 mmHg 81%
    10:00 +24°C° 0.1 mm 1 m/S 624 mmHg 74%
    11:00 +24°C° 0.6 mm 1 m/S 624 mmHg 76%
    12:00 +24°C° 0.6 mm 1 m/S 623 mmHg 79%
    13:00 +23°C° 0.6 mm 1 m/S 622 mmHg 82%
    14:00 +23°C° 1.2 mm 1 m/S 621 mmHg 85%
    15:00 +22°C° 1.2 mm 1 m/S 621 mmHg 87%
    16:00 +22°C° 1.2 mm 1 m/S 620 mmHg 90%
    17:00 +21°C° 0.5 mm 1 m/S 620 mmHg 93%
    18:00 +20°C° 0.5 mm 1 m/S 621 mmHg 95%
    19:00 +17°C° 0.5 mm 0 m/S 621 mmHg 97%
    20:00 +17°C° 0.2 mm 0 m/S 621 mmHg 97%
    21:00 +16°C° 0.2 mm 0 m/S 622 mmHg 97%
    22:00 +16°C° 0.2 mm 0 m/S 622 mmHg 97%
    23:00 +16°C° 0.2 mm 0 m/S 622 mmHg 97%
    Mehr zeigen